Temp
12 12 12 12 13 13 13 13 14 14 14 14 14 13 13 13 13 14 14 14 14 14 13 13 13 13 13 13 13 13 13 13 13 13 13 13 13 12 12 12 12 12
11 11 12 12 13 13 14 14 14 14 14 14 13 13 13 13 13 14 14 14 14 14 13 13 13 12 12 13 13 13 13 13 13 13 13 13 13 13 12 12 12 12
11 11 11 12 12 13 13 13 14 14 13 13 13 13 13 13 13 14 14 14 13 14 14 13 13 13 12 12 13 13 13 13 13 13 13 13 12 12 12 12 12 12
11 11 12 12 12 12 12 13 13 14 14 14 14 13 13 13 13 13 14 14 13 14 14 13 13 13 12 12 13 13 13 13 13 13 13 13 13 12 12 12 12 12
11 11 11 12 11 11 12 12 13 14 14 14 14 14 13 12 13 13 13 13 13 13 14 14 13 13 12 12 12 13 13 13 13 13 13 13 13 13 12 12 12 12
11 11 11 11 11 11 11 12 13 14 14 14 14 14 13 12 12 13 13 13 13 13 13 13 13 13 13 12 12 13 13 13 13 13 13 13 13 13 12 12 12 12
12 11 11 11 11 11 11 11 13 14 14 14 14 13 13 13 13 13 13 14 13 13 13 13 13 13 13 12 13 13 13 13 13 13 13 13 13 13 12 12 12 12
12 12 12 11 11 11 11 11 12 13 13 13 13 13 13 13 13 14 14 14 13 13 13 13 13 13 13 13 13 13 13 13 13 13 13 13 13 13 12 12 12 12
12 11 11 11 11 11 11 11 12 12 12 11 12 12 13 13 13 13 14 14 13 13 13 13 13 13 13 13 13 13 13 13 13 13 13 13 13 13 13 12 12 12
12 11 10 10 10 11 11 11 11 11 11 11 12 12 12 12 12 13 13 13 13 13 13 13 13 13 13 13 13 13 13 13 13 13 13 13 13 13 13 12 12 12
12 11 11 10 10 10 11 11 11 11 11 11 11 11 11 12 12 12 12 13 13 13 13 13 13 13 13 13 13 13 13 13 13 12 12 13 13 13 12 12 12 12
11 11 11 11 11 11 11 11 11 11 11 11 11 11 11 11 11 12 12 12 13 13 13 13 13 13 13 13 13 13 13 13 13 12 12 13 13 13 12 12 12 12
11 11 11 12 12 11 11 11 11 11 11 11 11 11 11 11 11 12 12 12 12 13 13 13 13 13 13 13 13 13 13 13 13 12 12 13 13 13 12 11 11 12
11 11 11 11 12 12 11 11 12 12 12 12 12 12 11 11 11 12 12 12 12 12 13 13 13 13 13 13 13 13 12 12 12 12 12 13 13 13 12 11 11 11
11 11 11 11 11 12 12 11 11 11 12 12 12 12 12 11 11 12 12 12 12 12 12 12 13 13 13 13 12 12 12 12 12 12 12 12 12 12 12 11 11 11
10 11 11 11 11 11 11 10 10 10 11 12 12 12 12 12 12 12 12 12 12 12 12 12 12 12 12 12 12 12 12 13 12 12 12 12 12 11 11 11 11 12
9 10 10 9 9 10 9 9 9 9 10 11 11 11 11 11 11 11 11 12 11 12 12 12 12 12 12 12 12 12 12 13 12 12 12 12 12 11 11 11 11 11
8 8 8 8 8 9 9 9 9 9 10 10 10 10 10 10 10 10 11 11 11 12 12 12 12 12 12 12 12 12 12 12 12 12 12 12 12 11 11 11 11 11
7 7 8 8 7 8 8 8 9 9 9 9 10 10 10 10 10 10 10 11 11 12 12 12 12 12 12 12 12 12 12 12 12 12 12 11 11 11 11 11 11 11
6 7 7 8 7 7 8 8 8 8 8 9 9 9 9 10 10 10 10 10 11 11 11 12 11 11 12 11 11 11 12 11 11 12 11 11 11 12 12 12 11 11
6 6 7 7 7 7 8 8 8 8 8 8 8 9 9 9 9 10 10 10 10 11 11 11 11 11 11 11 11 11 11 11 11 11 11 12 12 12 12 12 11 11
5 6 6 7 7 7 7 8 7 7 7 7 7 8 8 8 9 9 9 9 10 10 11 11 11 11 11 11 11 11 11 11 12 12 12 12 12 12 12 11 11 11
5 5 6 6 6 6 6 7 6 6 6 6 6 7 7 7 7 7 8 9 10 10 10 10 10 11 11 11 11 11 11 11 12 12 12 12 12 11 11 11 11 11
5 5 5 6 6 6 5 6 6 5 5 5 5 6 6 6 7 7 7 8 9 10 9 9 10 11 11 11 11 11 11 11 11 11 12 12 12 11 11 11 11 11
5 5 5 5 5 5 5 5 5 5 4 5 5 5 5 6 7 8 8 7 8 9 8 9 10 11 11 11 11 11 11 11 11 11 11 11 12 11 11 11 11 11
4 4 5 5 4 4 4 4 4 4 4 5 5 5 6 6 7 7 8 8 8 8 8 9 10 10 10 11 10 10 10 10 11 11 11 11 11 11 11 11 11 11
Height
1514 1515 1515 1516 1516 1517 1517 1516 1517 1517 1518 1519 1520 1520 1521 1522 1523 1523 1524 1525 1526 1527 1528 1529 1530 1531 1531 1530 1532 1535 1536 1538 1540 1542 1544 1546 1547 1549 1550 1551 1551 1552
1511 1512 1513 1514 1514 1514 1514 1514 1514 1514 1515 1516 1517 1518 1518 1518 1519 1520 1520 1521 1522 1523 1524 1526 1527 1528 1528 1528 1529 1532 1533 1535 1537 1539 1541 1543 1545 1546 1548 1549 1550 1550
1508 1509 1510 1510 1511 1511 1510 1510 1510 1511 1512 1513 1514 1516 1516 1515 1516 1517 1517 1518 1519 1520 1521 1522 1523 1525 1526 1526 1527 1529 1530 1532 1535 1537 1538 1540 1542 1544 1545 1547 1548 1549
1507 1507 1507 1507 1507 1507 1507 1507 1507 1508 1509 1510 1511 1512 1513 1512 1513 1514 1515 1516 1517 1517 1518 1518 1520 1522 1525 1525 1525 1526 1528 1530 1532 1534 1536 1537 1540 1542 1543 1545 1546 1547
1506 1506 1505 1505 1505 1505 1505 1504 1504 1505 1506 1507 1508 1509 1509 1510 1510 1511 1513 1514 1514 1515 1515 1515 1516 1519 1522 1523 1524 1524 1526 1528 1529 1531 1533 1534 1537 1539 1541 1542 1543 1544
1505 1505 1504 1503 1503 1502 1502 1502 1502 1502 1503 1504 1505 1505 1506 1506 1507 1508 1510 1511 1511 1512 1512 1513 1514 1516 1518 1520 1521 1522 1524 1525 1527 1528 1530 1532 1534 1536 1538 1539 1540 1541
1504 1503 1503 1502 1501 1500 1500 1499 1499 1500 1501 1502 1502 1502 1503 1504 1504 1505 1507 1508 1509 1509 1510 1510 1511 1513 1515 1517 1519 1520 1521 1522 1524 1525 1527 1529 1530 1533 1535 1536 1538 1539
1501 1500 1500 1499 1499 1499 1498 1497 1497 1497 1498 1499 1499 1500 1501 1501 1502 1502 1504 1505 1506 1506 1507 1508 1509 1511 1513 1514 1516 1517 1518 1519 1521 1523 1524 1526 1527 1530 1534 1536 1536 1537
1498 1497 1497 1497 1497 1497 1496 1495 1494 1494 1495 1496 1497 1498 1499 1499 1500 1500 1501 1502 1503 1504 1505 1506 1507 1508 1510 1512 1513 1514 1515 1517 1518 1520 1522 1524 1525 1528 1531 1534 1535 1535
1496 1494 1494 1494 1494 1494 1493 1493 1493 1492 1493 1493 1494 1495 1496 1497 1497 1498 1499 1500 1500 1501 1502 1504 1505 1506 1507 1509 1510 1511 1513 1514 1516 1519 1520 1521 1523 1526 1529 1531 1533 1533
1495 1493 1492 1491 1491 1491 1491 1490 1490 1491 1491 1491 1492 1492 1494 1494 1495 1495 1496 1497 1498 1499 1500 1501 1502 1504 1505 1506 1508 1509 1510 1513 1515 1517 1518 1520 1521 1524 1527 1529 1531 1531
1494 1492 1490 1489 1489 1488 1488 1488 1488 1489 1489 1489 1490 1490 1490 1491 1492 1492 1493 1494 1495 1496 1498 1499 1500 1502 1503 1504 1505 1507 1509 1511 1513 1515 1517 1518 1520 1522 1525 1528 1529 1529
1493 1491 1489 1488 1487 1486 1486 1486 1486 1486 1486 1487 1487 1487 1487 1488 1489 1489 1490 1491 1493 1494 1495 1496 1498 1499 1501 1502 1503 1505 1507 1509 1511 1513 1515 1517 1518 1521 1524 1527 1527 1528
1491 1490 1488 1487 1485 1484 1483 1483 1483 1483 1483 1484 1484 1484 1484 1485 1486 1486 1486 1488 1490 1491 1492 1494 1495 1496 1498 1500 1502 1504 1506 1507 1509 1512 1514 1516 1517 1519 1523 1525 1525 1526
1490 1488 1487 1485 1484 1482 1481 1481 1481 1480 1480 1480 1481 1481 1481 1481 1482 1483 1483 1484 1486 1488 1489 1491 1492 1494 1496 1498 1500 1502 1504 1506 1508 1510 1513 1514 1515 1518 1520 1521 1522 1524
1489 1487 1485 1483 1482 1481 1480 1479 1479 1478 1478 1478 1477 1477 1477 1478 1479 1479 1480 1481 1483 1485 1486 1488 1489 1491 1493 1496 1498 1501 1502 1504 1506 1508 1511 1512 1514 1517 1518 1518 1520 1522
1488 1485 1483 1482 1481 1480 1479 1478 1478 1477 1476 1476 1475 1475 1475 1475 1475 1476 1477 1478 1480 1482 1483 1485 1486 1489 1492 1494 1496 1498 1500 1502 1504 1506 1509 1511 1513 1516 1517 1517 1519 1521
1488 1485 1483 1481 1480 1479 1478 1477 1477 1476 1475 1474 1473 1472 1472 1472 1472 1473 1474 1475 1476 1478 1480 1482 1484 1487 1490 1492 1494 1496 1498 1500 1502 1504 1507 1509 1512 1515 1517 1518 1519 1520
1488 1486 1483 1481 1480 1479 1478 1477 1475 1474 1473 1471 1470 1470 1470 1470 1471 1471 1472 1472 1473 1475 1478 1480 1483 1486 1488 1490 1492 1494 1496 1499 1501 1503 1505 1508 1511 1514 1516 1517 1518 1519
1489 1487 1484 1481 1480 1478 1477 1476 1474 1472 1471 1469 1468 1468 1468 1468 1468 1469 1469 1470 1471 1473 1475 1479 1482 1485 1487 1489 1491 1493 1495 1497 1500 1502 1504 1507 1510 1512 1514 1516 1517 1518
1491 1488 1485 1482 1480 1478 1477 1475 1473 1471 1469 1468 1466 1465 1466 1466 1467 1467 1467 1467 1468 1470 1473 1477 1480 1483 1485 1487 1489 1491 1494 1496 1499 1501 1504 1506 1509 1511 1513 1514 1515 1516
1492 1489 1486 1484 1481 1479 1477 1474 1472 1470 1468 1467 1466 1465 1465 1465 1465 1465 1465 1465 1467 1469 1471 1475 1478 1481 1484 1487 1488 1490 1493 1496 1498 1501 1503 1506 1508 1510 1511 1513 1514 1515
1493 1491 1488 1486 1483 1480 1478 1475 1472 1470 1468 1467 1466 1466 1465 1465 1465 1465 1465 1465 1466 1469 1471 1474 1477 1479 1481 1485 1488 1490 1493 1496 1498 1501 1503 1505 1507 1508 1510 1511 1513 1514
1495 1493 1490 1487 1485 1482 1480 1478 1475 1472 1471 1469 1469 1468 1467 1467 1467 1467 1467 1466 1467 1470 1472 1474 1477 1480 1481 1483 1487 1491 1494 1496 1498 1500 1502 1504 1506 1507 1509 1510 1512 1513
1497 1494 1492 1489 1487 1484 1483 1481 1479 1476 1474 1473 1473 1472 1471 1470 1470 1469 1470 1470 1470 1472 1474 1475 1477 1480 1482 1485 1488 1492 1495 1497 1498 1500 1502 1503 1504 1506 1507 1509 1511 1512
1499 1496 1494 1491 1489 1487 1486 1485 1483 1481 1479 1478 1477 1477 1476 1474 1473 1472 1473 1473 1474 1476 1478 1479 1479 1480 1483 1487 1490 1493 1495 1497 1498 1500 1501 1502 1504 1505 1506 1508 1509 1511
Wind_Speed
17 17 20 21 21 19 16 17 18 17 15 13 12 11 10 10 12 14 16 19 20 22 24 25 26 24 23 24 24 23 22 19 18 20 19 19 20 20 21 20 19 18
13 13 16 18 18 18 17 17 16 15 14 13 12 10 9 9 10 12 14 16 17 19 21 22 25 25 24 24 23 22 22 21 21 20 20 21 21 22 22 21 20 19
13 13 15 16 16 16 17 17 16 15 15 15 14 11 9 9 10 10 11 13 15 16 17 20 23 24 24 24 22 22 23 23 22 21 21 21 21 22 22 21 20 19
13 13 15 16 17 16 15 16 16 15 14 12 12 12 12 12 12 11 11 12 15 15 16 18 22 23 24 24 23 23 24 23 22 22 22 22 22 23 23 23 22 20
12 14 14 15 17 16 14 14 14 15 14 11 10 12 15 14 13 12 12 14 16 16 17 18 20 23 24 24 23 23 23 23 23 23 22 22 22 23 23 23 22 20
12 13 14 14 14 14 13 14 15 16 18 17 14 14 15 14 13 13 13 15 16 17 17 18 20 23 24 23 22 22 23 23 23 22 22 21 22 23 23 22 21 21
13 12 13 13 13 11 12 14 15 16 17 17 16 16 15 14 14 13 13 15 16 17 17 18 20 22 23 23 22 23 23 23 22 22 21 22 24 25 24 22 20 20
15 14 13 14 13 12 12 13 15 15 16 17 18 18 17 17 17 16 16 16 16 18 18 19 21 22 23 24 23 23 22 23 23 22 22 23 25 25 23 21 20 20
17 16 15 15 15 14 13 13 14 14 16 18 20 20 20 21 20 19 19 18 17 18 19 20 22 23 24 24 23 22 22 22 23 22 22 23 25 24 22 21 21 20
17 18 17 16 15 16 16 16 15 15 16 18 20 21 22 23 23 22 21 19 19 19 20 21 22 23 24 23 23 23 22 22 22 21 21 23 23 23 23 23 22 21
17 18 19 18 17 17 19 20 19 19 18 18 19 21 22 24 24 23 22 20 20 21 21 22 22 23 24 23 23 23 21 21 21 21 22 22 23 24 24 23 23 21
15 17 19 20 20 19 20 21 22 22 21 20 20 20 22 23 24 23 22 21 21 22 22 22 23 23 23 23 23 22 21 21 20 20 21 22 24 25 24 22 22 20
16 15 16 18 21 21 21 22 22 23 23 23 22 22 22 22 23 23 23 22 22 22 23 23 23 23 22 22 22 21 21 20 19 19 21 22 23 24 24 22 21 19
20 17 16 16 17 19 20 21 23 24 24 23 23 23 23 22 22 23 24 23 22 23 24 24 24 23 23 23 22 21 20 19 19 20 21 21 22 23 24 22 20 19
22 20 18 16 15 17 18 18 20 22 24 23 23 24 24 24 24 24 24 23 22 24 26 26 25 24 24 23 22 21 20 19 19 20 20 20 21 21 21 20 18 18
24 21 18 14 13 14 15 15 15 17 20 22 22 23 25 26 25 25 26 25 23 25 27 26 25 25 23 22 22 21 20 18 19 20 20 20 19 18 18 18 18 18
27 22 17 13 11 11 11 12 13 14 15 17 19 20 22 25 25 26 27 27 25 26 27 27 26 25 23 22 22 21 19 18 18 18 19 20 19 17 16 17 17 18
30 25 19 17 15 14 13 12 11 12 13 14 16 16 18 20 21 23 25 26 26 27 27 27 26 26 24 22 21 20 19 18 18 17 18 19 19 17 16 17 17 17
31 28 24 22 20 18 17 16 14 14 15 16 17 16 16 16 17 20 22 25 26 27 27 26 26 25 24 23 21 19 18 17 17 17 18 18 19 19 17 17 16 14
32 30 27 25 24 21 18 17 18 18 19 20 20 19 18 19 20 22 25 28 27 26 26 25 26 26 25 23 20 18 17 17 18 18 18 18 19 19 17 16 14 12
32 30 28 26 25 23 19 17 17 19 20 22 21 20 20 21 23 25 28 30 28 27 27 26 27 27 24 22 20 18 18 19 19 19 18 19 19 18 17 15 13 11
31 30 28 26 26 24 21 18 17 17 18 19 19 18 17 18 22 25 28 29 28 27 27 28 28 27 24 21 20 19 19 20 20 18 18 19 20 19 17 16 13 11
31 29 27 24 24 25 24 22 21 19 17 15 14 12 11 11 15 19 21 24 25 25 25 27 28 27 25 22 19 18 19 19 19 18 18 20 20 19 18 17 14 12
31 29 27 24 23 23 22 20 20 18 16 13 10 5 2 4 6 8 10 14 19 21 22 25 26 24 22 20 18 16 17 17 17 18 18 19 19 19 18 17 15 14
29 28 28 26 23 21 19 18 17 17 15 12 10 6 4 5 2 4 5 7 12 15 16 20 23 24 22 21 20 18 16 15 15 16 17 18 19 20 19 18 16 15
28 27 27 26 24 20 17 15 14 14 13 13 12 10 9 8 6 5 7 9 10 11 11 13 18 21 22 22 20 18 15 13 14 15 16 17 18 18 18 17 17 16
Wind_Direction
294 291 289 287 285 285 282 282 282 282 283 284 282 280 275 275 276 271 263 258 254 252 250 247 243 236 234 236 235 236 236 230 227 234 239 240 238 232 226 222 219 217
292 286 284 283 283 281 277 278 283 285 283 278 274 274 275 274 271 266 261 260 256 253 252 250 247 241 234 233 235 237 236 229 226 230 234 237 238 232 226 221 217 216
298 286 280 276 273 271 270 270 274 279 279 274 270 269 268 264 260 257 257 258 256 254 251 247 246 243 237 233 232 236 237 233 230 232 234 236 236 232 225 219 215 213
301 290 285 277 267 261 262 264 267 271 274 272 268 264 259 253 250 250 257 261 256 250 246 244 244 242 237 233 231 234 237 235 234 234 235 235 235 231 225 219 214 211
302 294 290 280 270 264 262 263 265 265 263 262 262 259 253 251 251 253 259 265 261 250 242 241 241 237 235 233 230 231 236 236 234 233 233 233 233 231 226 219 213 211
301 295 289 280 271 267 266 265 266 266 261 258 261 259 254 251 252 255 261 267 263 251 240 236 234 232 233 234 232 231 234 235 234 233 231 229 229 231 229 221 212 209
293 291 289 283 275 271 273 270 268 269 266 260 257 259 260 258 257 259 263 266 262 251 239 232 229 229 230 233 234 234 234 233 232 230 227 226 225 227 227 222 212 207
293 287 283 282 280 275 274 270 264 260 257 252 250 254 259 260 260 262 262 261 256 247 238 230 225 225 228 231 234 235 233 231 228 225 224 226 225 224 225 221 213 208
299 292 283 278 279 273 266 267 265 258 253 249 247 248 252 254 256 256 257 256 249 241 236 230 224 223 226 229 231 233 232 228 225 223 225 226 226 225 223 219 216 214
301 295 290 286 283 275 267 265 265 262 260 256 250 245 244 247 249 249 249 248 243 238 234 230 224 223 225 227 229 231 229 225 223 224 226 226 225 225 221 216 218 218
307 296 291 288 285 278 272 268 266 264 263 261 256 249 246 246 247 245 244 242 240 237 233 230 227 225 225 225 225 226 224 223 223 223 225 224 224 225 221 217 219 219
329 310 295 289 285 281 276 273 270 267 265 263 260 256 254 253 249 244 241 240 238 234 232 231 229 226 225 222 221 222 221 221 221 220 220 220 223 224 220 218 219 217
348 333 314 299 290 285 281 277 273 269 265 262 259 256 256 256 253 247 243 241 237 232 231 229 228 227 223 218 218 219 219 216 215 217 215 216 222 221 215 214 216 213
351 343 332 316 299 290 285 281 277 274 271 266 259 255 254 254 253 249 246 243 237 230 228 227 226 225 219 216 217 217 215 213 214 215 212 213 220 218 210 208 207 204
352 346 338 326 307 291 283 280 278 276 274 271 265 260 256 253 251 248 247 247 240 229 226 225 222 219 214 214 215 214 211 211 214 212 209 210 217 215 206 200 197 195
357 348 341 334 315 296 289 288 287 280 274 272 269 264 260 256 251 247 245 247 243 230 224 223 218 212 211 213 214 214 212 212 213 211 208 210 214 211 201 193 192 190
5 356 351 353 344 326 314 304 296 288 280 274 270 267 262 257 253 250 246 245 242 232 224 221 215 208 208 211 213 213 212 212 212 209 207 209 209 205 197 189 186 185
10 5 5 5 359 350 339 325 310 304 298 289 282 276 266 257 253 253 248 243 237 229 222 219 214 208 208 209 208 207 207 208 209 205 204 203 197 191 189 186 184 184
11 10 10 7 1 352 341 333 327 321 315 307 300 292 281 270 264 261 257 248 237 226 218 215 211 207 205 202 198 199 201 202 200 198 199 197 187 182 185 187 187 190
11 9 10 10 5 356 343 332 325 319 314 311 305 297 288 279 270 263 257 250 238 223 214 212 209 204 199 193 191 195 196 192 190 191 195 192 185 183 187 189 189 192
11 8 8 11 9 2 353 340 327 318 313 310 305 296 285 273 263 254 247 240 231 218 211 208 202 195 190 188 189 191 189 184 184 188 192 192 189 189 191 189 188 190
12 11 7 9 11 10 9 5 354 338 323 315 307 297 285 269 256 245 235 228 221 212 205 201 196 186 180 183 184 183 182 182 184 188 191 193 192 192 191 188 187 189
11 14 11 8 9 12 15 18 16 4 345 331 318 301 282 259 244 233 220 211 208 204 199 197 192 181 173 174 175 178 183 186 188 192 194 196 195 193 192 190 189 192
9 13 15 13 13 14 13 17 24 23 10 359 344 314 244 192 209 220 206 190 190 195 195 190 183 173 166 166 169 180 190 191 193 195 195 197 197 195 193 194 196 196
11 12 16 18 20 23 20 19 27 35 35 31 26 31 85 112 150 243 218 171 171 186 189 180 173 170 169 169 173 183 192 195 198 199 198 198 199 197 197 199 202 201
17 15 17 20 22 27 31 30 32 39 48 56 56 54 68 88 106 145 148 134 142 163 172 170 169 167 167 171 176 180 185 191 197 199 198 199 200 200 204 206 206 205